CDT,Max TemperatureF,Mean TemperatureF,Min TemperatureF,Max Dew PointF,MeanDew PointF,Min DewpointF,Max Humidity, Mean Humidity, Min Humidity, Max Sea Level PressureIn, Mean Sea Level PressureIn, Min Sea Level PressureIn, Max VisibilityMiles, Mean VisibilityMiles, Min VisibilityMiles, Max Wind SpeedMPH, Mean Wind SpeedMPH, Max Gust SpeedMPH,PrecipitationIn, CloudCover, Events, WindDirDegrees
2011-9-1,84,75,66,73,69,61,87,75,62,29.80,29.68,29.59,10,8,4,28,12,38,T,5,Rain,324
2011-9-2,76,68,59,60,55,48,87,63,38,29.98,29.93,29.86,10,10,10,17,5,20,T,3,,334
2011-9-3,70,61,52,57,49,45,78,61,44,30.08,29.94,29.84,10,10,10,30,15,41,T,3,,282
2011-9-4,69,58,47,49,46,44,86,63,40,30.25,30.19,30.08,10,10,10,17,7,22,0.00,1,,343
2011-9-5,74,60,45,49,45,41,86,61,35,30.21,30.12,30.01,10,10,10,18,9,29,0.00,0,,163
2011-9-6,80,68,55,54,50,46,72,54,36,30.13,30.06,30.03,10,10,10,20,12,25,0.00,0,,165
2011-9-7,83,69,55,57,55,51,90,64,37,30.30,30.24,30.14,10,10,10,9,4,13,0.00,0,,139
2011-9-8,85,69,52,60,54,51,93,64,34,30.33,30.28,30.19,10,8,0,10,2,14,0.00,0,Fog,77
2011-9-9,88,71,53,57,54,51,93,61,29,30.19,30.14,30.08,10,10,9,13,4,21,0.00,0,,1
2011-9-10,87,70,52,58,54,49,93,62,31,30.12,30.05,29.96,10,10,9,16,4,26,0.00,0,,248
2011-9-11,91,75,58,57,54,46,86,55,23,29.96,29.90,29.80,10,10,10,12,6,16,0.00,0,,204
2011-9-12,81,65,48,57,50,40,78,59,39,30.04,29.81,29.65,10,10,8,33,15,39,0.00,2,,296
2011-9-13,73,56,38,44,38,30,86,56,26,30.25,30.06,29.99,10,10,10,30,13,38,0.00,2,,301
2011-9-14,59,47,34,32,29,26,76,54,32,30.42,30.36,30.26,10,10,10,23,10,29,0.00,1,,328
2011-9-15,61,46,30,35,28,23,89,58,26,30.46,30.38,30.25,10,10,10,16,6,20,0.00,0,,169
2011-9-16,58,48,38,38,35,29,70,57,43,30.25,30.18,30.10,10,10,10,24,12,31,0.00,7,,161
2011-9-17,64,58,52,47,43,38,66,57,48,30.10,30.01,29.93,10,10,10,24,16,33,0.00,8,,154
2011-9-18,75,62,49,55,49,42,93,68,42,29.98,29.93,29.85,10,8,2,23,9,28,0.06,5,Rain,185
2011-9-19,78,60,41,43,40,36,89,56,22,30.01,29.90,29.72,10,10,10,22,10,26,0.00,0,,188
2011-9-20,64,59,53,54,48,42,93,69,44,29.73,29.58,29.51,10,9,3,28,12,35,0.13,7,Rain,218
2011-9-21,53,48,43,51,44,41,93,82,71,30.17,29.97,29.68,10,9,2,32,20,41,0.04,8,Rain,333
2011-9-22,61,48,35,40,36,32,92,64,36,30.22,30.18,30.15,10,10,10,10,5,15,0.00,1,,6
2011-9-23,69,53,37,39,36,32,85,56,27,30.16,30.07,29.99,10,10,10,18,9,23,0.00,0,,159
2011-9-24,72,59,46,44,41,37,82,56,29,30.04,30.00,29.96,10,10,10,16,11,23,0.00,0,,151
2011-9-25,72,60,47,45,41,39,77,54,31,30.00,29.98,29.94,10,10,10,16,10,21,0.00,0,,142
2011-9-26,75,57,38,48,45,37,89,63,36,30.04,29.99,29.94,10,9,2,12,2,14,0.00,0,,117
2011-9-27,81,61,41,49,45,40,89,59,28,29.99,29.93,29.85,10,7,1,13,4,17,0.00,0,,192
2011-9-28,90,69,48,49,45,41,83,52,21,29.83,29.79,29.72,10,10,10,24,8,30,0.00,0,,223
2011-9-29,69,57,44,45,41,38,71,54,37,30.27,30.07,29.85,10,10,10,35,19,45,0.00,2,,330
2011-9-30,63,49,34,37,33,30,89,61,32,30.35,30.28,30.20,10,10,10,15,6,24,0.00,0,,21